GFSSE_925_temp_300.txt.gz
Temp
24 21 20 19 19 19 19 19 19 19 19 19 19 19 19 19 18 18 18 19 19 19 19 19 19 18 18 18 19 19 19 19 18 18 17 17 18 19 19 19 20 19 17
24 21 20 19 19 18 19 19 19 19 19 19 19 19 19 18 19 18 18 18 19 19 18 18 18 18 19 19 20 19 19 18 19 19 20 19 17 18 18 18 19 18 17
23 21 19 19 19 18 18 19 19 19 19 19 19 19 18 18 18 19 19 19 19 18 18 18 20 20 20 19 20 19 19 19 19 20 21 23 19 17 18 18 18 17 17
23 21 20 19 19 18 18 19 19 19 19 19 18 19 18 19 18 18 18 19 18 19 18 18 19 19 19 19 19 19 19 19 20 22 23 23 20 18 18 18 18 18 18
23 22 20 19 18 18 18 19 19 19 19 19 18 18 18 18 18 18 18 18 18 18 18 19 20 20 20 20 20 20 21 21 21 23 23 22 21 19 18 18 18 18 18
23 22 19 19 18 18 18 18 19 19 19 19 18 18 18 18 18 18 18 18 18 18 19 19 20 20 20 20 21 21 22 22 23 24 23 21 21 19 19 19 19 18 18
22 22 19 19 18 18 18 18 18 19 18 19 18 18 19 18 18 18 18 18 19 19 19 19 20 20 20 21 21 22 22 23 25 24 23 22 19 19 19 19 18 18 18
22 21 19 18 18 18 18 18 18 18 19 18 18 18 19 19 19 19 19 19 19 19 19 20 20 21 21 21 22 22 22 23 24 24 24 22 20 19 19 19 18 18 18
20 21 20 19 18 18 18 18 18 18 18 18 18 18 18 18 19 18 18 19 19 19 19 19 20 21 21 21 22 22 22 23 25 24 23 21 20 19 19 19 18 18 17
18 19 20 20 19 18 17 18 18 18 18 18 18 18 18 19 19 19 19 19 19 19 20 20 21 21 21 21 21 22 22 23 24 24 23 20 19 18 18 18 18 16 16
18 18 19 20 19 19 19 17 18 18 18 19 19 19 19 20 19 19 19 19 19 20 20 20 20 21 21 21 21 21 22 23 24 23 21 17 17 17 16 16 16 15 15
19 18 17 20 19 19 20 18 19 18 20 20 19 19 21 20 21 21 19 20 20 20 20 21 21 21 22 22 21 21 22 22 22 20 17 16 17 16 16 15 14 14 13
21 20 18 18 19 20 20 20 20 20 20 19 19 20 20 20 20 21 20 20 20 20 22 22 22 22 21 22 21 20 20 21 18 15 16 16 16 16 15 13 13 12 12
22 21 19 19 19 20 20 21 21 21 20 20 20 19 20 21 21 22 22 21 21 22 21 22 21 20 19 19 18 18 17 17 16 14 15 15 15 14 14 13 12 12 11
23 21 20 20 20 19 20 21 21 21 21 21 20 20 21 22 21 21 21 22 22 21 21 21 20 19 18 18 17 16 16 16 16 14 14 15 14 14 13 13 12 11 10
23 22 20 20 20 19 20 20 20 21 20 21 20 20 20 21 21 21 21 21 21 20 20 20 19 19 18 17 16 15 15 15 15 15 13 13 13 12 12 12 12 11 10
23 22 20 20 19 19 20 19 20 20 20 20 20 19 20 20 20 20 21 20 20 19 18 18 18 17 17 16 15 14 14 14 14 14 15 13 12 12 11 10 9 9 9
23 22 20 20 19 19 20 20 21 20 20 20 20 19 19 19 19 19 20 19 19 19 19 18 18 17 17 16 15 15 14 13 13 13 13 13 13 12 10 9 8 8 8
23 22 21 20 19 19 19 20 20 19 20 20 20 20 18 18 18 19 19 18 18 18 18 18 17 17 16 15 15 14 14 14 13 12 12 11 10 11 11 9 9 8 6
23 22 21 20 20 19 19 19 19 19 19 19 19 19 18 18 17 18 18 17 18 18 18 17 17 16 16 15 14 13 13 13 12 12 11 11 10 10 10 9 10 8 9
23 21 21 20 19 19 19 19 19 19 19 18 18 17 17 17 16 17 17 16 17 17 17 15 16 15 15 14 14 13 12 11 12 12 11 11 10 9 9 9 9 10 9
22 21 21 20 19 19 19 20 19 19 19 19 18 16 16 16 16 16 16 16 16 16 14 14 15 15 14 14 17 16 15 13 11 11 11 10 9 10 9 8 8 8 9
22 21 21 20 19 19 20 19 18 17 17 17 16 16 15 15 15 15 15 16 14 15 15 15 15 15 15 14 15 17 18 19 13 11 10 10 9 9 9 8 8 8 7
21 21 20 20 20 19 20 19 18 18 18 18 17 17 15 14 15 14 14 14 14 15 15 14 14 15 15 15 14 13 14 16 17 14 11 9 9 9 8 9 8 8 7
21 19 19 18 17 18 18 18 18 20 20 19 17 16 15 14 14 14 13 13 13 14 14 14 13 14 14 16 15 14 14 14 15 16 15 11 10 9 9 8 8 8 7
19 19 18 18 18 18 17 18 18 19 20 18 16 15 15 14 13 13 12 12 12 13 12 12 12 13 14 14 15 14 15 16 16 16 16 13 13 10 10 9 8 8 7

GFSSE_925_temp_303.txt.gz
Temp
26 20 20 20 20 19 19 19 18 18 18 19 18 18 18 19 19 19 19 19 19 19 18 18 18 18 18 19 20 20 20 19 20 19 18 17 17 18 19 19 21 19 17
24 21 20 20 19 19 19 19 19 19 19 19 19 19 19 19 19 19 19 19 18 18 20 19 18 19 19 18 19 19 20 20 21 21 20 18 17 18 19 20 19 17 17
23 21 19 20 19 19 19 19 19 19 19 19 19 18 19 18 18 18 18 18 19 19 18 18 18 19 20 20 20 20 20 21 21 21 22 21 19 19 19 19 18 18 18
24 22 20 20 19 19 18 19 19 19 19 19 19 18 18 18 18 18 18 19 19 18 18 18 19 19 19 20 20 20 21 21 21 21 22 22 20 19 18 19 18 18 18
24 23 20 19 19 19 18 18 19 19 19 18 18 18 18 18 18 19 19 19 18 18 17 19 20 20 20 21 21 21 22 23 23 22 24 22 20 18 18 18 18 19 19
25 24 19 19 19 19 18 18 18 19 19 19 18 18 18 18 18 18 18 18 18 18 19 20 20 21 21 21 21 22 23 23 22 24 23 21 20 19 19 19 19 19 18
25 21 19 19 19 18 18 18 18 18 18 18 18 19 18 18 18 18 18 18 19 19 20 20 21 21 21 21 22 22 23 23 23 25 23 21 19 20 19 19 18 18 17
25 22 19 19 18 18 18 18 18 18 18 18 18 18 18 18 18 18 19 19 19 20 20 21 21 21 21 21 22 23 24 24 26 25 24 21 19 19 19 18 18 17 17
24 22 20 19 18 18 18 18 18 18 18 18 18 18 18 18 18 19 19 19 19 20 20 21 21 21 21 22 22 23 24 25 26 25 24 21 18 18 17 18 17 17 16
24 22 21 20 19 18 17 18 18 18 18 18 18 19 19 19 19 19 19 19 20 20 20 21 20 21 21 22 22 23 24 25 26 26 22 18 18 18 17 16 16 15 15
23 22 22 21 21 20 19 17 18 18 18 19 19 19 19 19 19 19 20 19 20 20 21 21 21 21 22 22 22 23 24 25 24 21 19 18 17 17 16 15 15 14 14
21 23 22 22 21 21 21 18 19 18 19 20 20 19 22 21 21 21 19 20 20 21 21 21 21 22 22 23 23 23 24 21 20 18 17 17 17 16 15 14 13 13 12
22 21 23 22 21 22 22 21 21 21 21 21 20 22 22 22 21 21 20 20 20 21 21 21 22 22 23 24 23 23 21 20 16 16 16 16 16 14 14 13 12 11 11
23 22 22 22 22 23 22 23 23 22 22 21 21 22 21 22 22 23 23 23 23 23 24 24 23 22 21 21 20 19 19 16 16 14 15 15 15 14 13 12 12 11 10
25 23 23 23 22 23 23 24 23 23 23 23 21 22 22 23 23 24 24 24 24 24 24 23 21 20 20 19 19 18 18 16 14 14 14 14 13 13 13 12 12 11 10
26 24 23 23 22 22 23 23 23 23 23 23 23 22 23 24 23 24 23 24 24 23 22 22 22 21 20 19 18 18 18 17 14 14 13 13 13 12 11 11 11 10 10
26 24 23 23 22 22 23 22 22 23 22 23 23 22 22 23 23 24 24 23 23 21 20 20 21 20 19 18 17 17 17 17 15 15 14 13 12 12 11 9 9 9 9
26 25 23 23 22 21 22 22 23 23 23 23 22 22 22 22 22 22 22 22 21 21 21 20 20 20 19 18 18 17 16 16 15 15 15 15 15 12 10 10 9 8 8
27 25 23 23 22 21 21 22 23 22 23 23 23 22 21 21 21 22 22 21 20 21 20 19 19 19 19 18 17 17 16 16 16 15 13 13 12 13 11 10 10 10 9
26 25 23 22 22 21 21 22 23 22 23 23 23 22 20 21 20 21 21 20 20 21 20 20 20 19 18 18 17 16 16 15 15 14 14 13 12 12 12 11 10 10 10
26 24 23 22 22 21 21 22 23 22 23 22 22 22 20 20 19 20 20 19 20 20 20 19 18 18 18 17 16 15 14 14 14 14 14 13 12 11 11 11 12 12 10
26 24 23 23 22 21 22 23 23 23 22 22 22 20 20 19 19 19 20 19 19 19 18 17 17 18 17 16 17 17 16 14 13 13 13 12 12 12 11 10 10 10 11
26 24 24 23 22 21 23 22 23 22 22 21 21 19 19 18 18 18 18 18 18 18 17 16 17 17 17 16 17 19 19 20 15 13 12 12 11 12 11 10 10 10 9
25 23 23 23 22 22 22 22 22 22 21 21 21 20 19 18 18 17 17 17 16 17 17 16 16 17 17 17 16 17 16 18 18 15 13 11 11 11 11 11 10 10 9
24 23 22 22 22 21 21 22 22 22 21 21 21 20 18 17 17 17 16 16 16 16 17 16 16 16 16 17 17 16 16 17 17 19 16 13 12 12 11 10 10 10 9
24 22 22 22 22 21 21 21 20 20 23 23 21 19 18 17 16 16 15 15 15 16 15 16 15 15 16 16 17 17 17 17 17 18 18 15 14 12 12 11 10 10 9

GFSSE_925_temp_306.txt.gz
Temp
21 19 21 20 20 19 19 19 18 18 18 18 18 18 18 19 19 18 18 19 19 19 18 19 19 20 21 22 22 22 22 22 22 20 18 17 18 19 19 19 18 17 17
20 20 20 20 20 20 19 19 19 19 18 18 19 18 19 19 18 18 19 18 19 19 18 19 19 19 21 21 21 21 22 21 21 21 19 18 19 19 20 19 17 17 17
20 20 20 20 20 19 19 19 19 19 19 19 18 18 19 19 19 19 19 19 18 18 18 18 20 20 21 20 21 21 21 21 21 21 20 19 19 19 19 19 18 19 18
20 20 19 20 20 19 19 19 19 19 19 19 19 19 19 19 19 19 18 18 18 18 18 18 20 20 20 21 22 22 21 21 21 21 21 19 18 18 18 18 18 18 18
22 20 19 19 19 19 19 19 19 19 19 19 19 18 18 19 18 18 18 18 18 18 18 20 20 20 21 22 22 22 21 21 21 21 21 20 18 17 17 18 18 18 18
23 20 19 19 19 19 19 19 19 18 19 18 18 18 18 18 18 18 18 18 18 19 20 21 20 21 21 22 22 22 22 22 22 22 21 20 19 18 19 19 18 18 17
21 19 19 19 19 19 19 18 18 18 18 18 18 18 18 18 18 18 18 19 19 20 20 20 21 21 21 22 22 23 23 23 23 22 21 20 19 18 19 18 18 17 17
20 19 18 18 18 18 19 18 18 18 18 18 18 18 18 18 18 18 19 19 20 20 20 21 21 21 22 23 23 23 23 23 23 22 21 20 18 18 18 17 17 17 16
21 19 18 17 18 18 19 18 18 18 18 18 18 18 18 18 18 19 19 19 20 21 21 21 21 22 22 23 23 24 24 23 24 21 20 19 18 17 17 17 16 15 15
21 20 19 18 18 17 18 19 18 18 18 19 19 19 19 18 19 19 19 20 20 21 21 21 22 22 22 23 24 24 22 21 21 20 19 18 17 17 16 16 15 14 15
21 20 19 19 18 18 17 18 18 18 18 19 19 19 19 19 19 19 20 20 21 21 21 21 22 22 23 23 24 23 21 20 18 17 17 17 17 16 15 15 14 13 12
22 21 20 20 19 19 18 17 18 18 18 19 19 20 19 20 20 20 20 21 21 22 22 22 22 22 22 23 24 21 20 20 18 17 16 17 16 15 14 13 12 12 11
23 22 21 21 20 20 19 18 18 19 19 20 21 20 21 21 20 21 21 21 21 22 22 23 22 21 21 20 20 20 20 19 17 17 16 16 15 14 13 12 11 11 11
24 23 22 21 21 22 21 20 20 20 20 20 20 21 22 21 21 21 21 22 22 22 22 23 21 21 20 20 19 19 17 16 16 15 15 14 14 13 13 12 11 11 10
23 23 23 22 22 22 22 22 22 22 21 21 21 22 22 22 22 22 22 22 22 22 22 22 21 20 19 19 18 18 16 16 15 14 14 13 13 13 12 12 11 11 10
24 23 23 22 22 22 23 23 23 22 22 22 22 22 22 23 23 23 23 23 23 23 22 22 21 20 19 18 18 17 16 16 14 14 14 13 13 12 11 11 11 10 10
25 23 23 22 22 23 23 23 23 23 23 22 22 22 23 23 23 23 23 24 23 22 21 21 20 19 18 18 17 17 16 15 14 14 14 13 12 12 11 10 9 9 9
26 24 23 23 22 22 22 23 23 23 23 23 23 22 23 23 23 23 23 23 22 21 21 21 20 19 18 18 17 17 16 15 15 15 14 13 13 12 11 11 11 9 8
26 24 23 23 22 22 22 22 23 23 23 23 22 22 22 22 22 22 22 22 21 21 21 20 20 19 19 18 17 17 16 15 15 14 14 13 12 12 11 11 11 10 9
26 24 23 23 22 21 21 22 23 23 23 23 23 22 22 22 22 22 22 21 21 21 20 20 20 19 18 18 17 16 16 15 15 14 13 12 12 12 11 11 10 11 10
26 24 23 23 22 21 21 22 23 22 22 23 23 22 21 21 21 21 21 20 21 21 20 20 19 19 18 17 16 15 14 15 15 14 14 13 12 11 11 11 10 11 10
25 23 22 22 22 21 21 22 23 22 23 23 23 21 21 20 20 20 20 19 20 20 20 19 18 18 17 16 15 15 12 13 13 14 13 13 12 12 11 10 10 10 9
26 23 23 22 21 21 22 22 23 23 23 23 22 21 20 20 19 20 20 19 19 19 18 18 18 18 17 16 17 17 13 13 13 13 13 12 12 12 11 10 10 10 10
26 24 23 22 21 21 22 22 23 22 22 22 21 20 19 19 19 19 19 19 18 18 17 17 17 17 17 16 16 16 17 16 12 10 12 12 11 11 11 11 10 9 9
25 23 23 22 22 21 22 23 23 22 22 22 22 20 19 18 18 18 18 17 17 17 17 16 17 17 17 17 17 17 16 17 17 14 9 11 11 11 10 11 10 10 9
25 23 23 23 22 22 21 22 22 22 22 21 21 20 19 17 17 17 17 16 16 16 17 16 16 16 17 17 17 17 16 17 17 17 12 11 11 12 11 10 10 10 9

GFSSE_925_temp_312.txt.gz
Temp
17 18 19 19 19 19 19 18 18 18 19 19 19 19 19 19 20 20 20 19 19 20 19 19 20 21 19 19 21 20 19 19 19 18 17 17 17 16 16 16 16 16 16
18 18 19 19 19 19 19 18 18 19 19 19 19 19 19 20 20 19 20 20 20 19 18 18 18 18 21 21 21 20 19 19 19 18 17 17 17 17 17 17 16 16 16
18 19 19 19 19 19 19 19 19 19 19 19 19 19 19 19 19 19 19 19 19 18 18 20 21 21 21 21 20 20 20 19 19 19 19 18 17 16 16 17 16 16 16
19 19 19 19 19 19 19 19 19 19 19 19 19 19 19 19 18 19 19 20 19 19 18 21 20 20 21 20 20 19 19 19 19 19 19 17 17 17 17 16 16 16 17
19 19 19 19 19 19 19 19 19 19 19 19 19 19 19 19 19 19 19 19 19 20 20 20 20 20 20 20 20 19 19 18 19 19 18 17 17 16 16 16 17 17 16
18 19 19 19 19 19 19 19 19 19 19 19 19 19 19 19 19 19 19 19 20 21 21 20 20 20 20 20 19 19 19 19 18 18 18 18 17 16 16 17 16 16 15
18 19 19 19 19 19 19 19 18 18 19 18 19 19 19 19 19 19 20 20 20 21 21 20 20 20 20 20 21 21 20 19 18 18 17 18 18 16 16 16 16 15 15
18 19 19 19 19 19 19 19 19 18 18 18 18 19 19 19 19 19 20 21 21 21 21 21 21 21 21 21 21 21 20 19 18 18 17 17 16 17 16 16 15 15 14
18 18 18 18 19 19 19 19 18 18 18 19 19 19 18 19 19 20 20 21 21 21 21 22 21 21 20 20 21 22 20 19 19 18 17 17 17 16 15 15 14 14 14
18 18 18 18 18 18 18 18 18 18 18 18 19 19 19 19 19 20 21 21 21 22 22 20 20 21 20 20 22 22 19 19 19 17 17 17 16 15 15 14 13 13 12
17 17 18 18 18 18 18 18 18 18 18 18 18 19 19 19 19 20 21 21 22 22 22 19 20 20 20 20 20 19 19 18 18 17 16 17 16 14 14 13 13 12 11
16 17 18 17 17 18 17 17 18 17 17 18 18 18 19 19 20 20 21 21 21 21 21 20 20 20 20 20 20 20 20 18 17 16 15 16 15 14 13 12 11 11 11
16 16 17 18 17 17 17 17 18 18 18 18 18 19 19 19 19 20 21 21 21 21 21 20 20 20 19 19 19 19 17 17 16 15 15 14 14 13 12 12 11 11 10
16 16 17 18 17 18 18 17 18 18 18 18 19 19 19 19 20 20 21 21 21 21 21 20 19 19 19 18 18 17 16 16 15 14 14 13 13 12 12 11 11 10 10
17 17 17 18 18 18 18 18 18 19 19 19 19 19 20 20 20 21 21 21 22 22 20 20 20 19 19 18 18 16 15 15 15 14 13 13 13 12 12 11 10 10 9
18 17 18 18 18 18 18 18 19 19 20 19 19 20 20 21 21 21 21 22 22 21 19 19 19 19 18 17 16 16 15 15 14 13 13 13 12 11 11 11 10 10 9
18 18 18 18 19 19 19 19 19 20 20 19 20 20 20 21 21 22 22 22 22 21 19 18 18 18 17 16 16 15 15 14 14 13 13 13 12 11 10 10 10 10 9
19 18 18 19 19 20 20 20 20 20 20 20 20 20 20 21 21 21 21 21 21 20 19 18 18 17 16 16 14 14 14 14 13 13 13 12 12 12 11 10 9 9 9
20 19 19 19 20 20 20 20 20 21 21 21 21 21 21 21 21 21 21 21 20 20 19 19 18 18 17 16 15 14 13 13 13 12 12 12 12 12 11 10 9 8 8
20 20 19 20 20 20 20 20 20 21 21 21 21 21 21 22 21 21 22 21 21 20 19 19 18 17 17 15 14 13 13 13 13 13 13 12 11 11 11 10 9 8 8
20 20 20 20 20 20 20 19 19 19 21 21 21 22 22 21 21 21 21 20 20 20 19 19 18 17 15 15 14 13 12 13 12 12 12 12 11 11 10 10 9 9 8
21 20 20 20 20 20 20 20 20 20 20 21 22 22 21 21 22 22 21 21 21 20 19 18 18 15 15 15 14 13 10 11 12 12 11 12 11 11 10 9 9 8 8
21 20 21 20 20 21 21 21 22 22 21 20 21 22 21 22 21 21 21 21 20 20 19 18 18 17 14 15 15 14 9 9 10 11 11 11 11 10 10 10 9 9 8
22 21 21 21 21 20 21 21 21 21 20 20 20 21 21 21 21 21 21 20 20 20 20 19 18 18 16 15 15 15 16 13 9 8 10 11 11 11 10 10 9 9 8
22 21 20 20 20 20 20 21 20 20 21 21 20 20 21 21 21 20 20 20 20 20 20 19 18 18 17 16 15 15 14 13 13 9 7 9 10 10 10 10 10 9 9
22 22 21 20 20 20 20 20 20 20 20 19 19 19 20 20 20 20 20 20 20 19 19 19 18 18 17 17 17 16 16 14 12 11 6 7 9 10 10 10 10 9 9